TimeCST,TemperatureF,Dew PointF,Humidity,Sea Level PressureIn,VisibilityMPH,Wind Direction,Wind SpeedMPH,Gust SpeedMPH,PrecipitationIn,Events,Conditions,WindDirDegrees,DateUTC
12:15 AM,19.4,14.7,82,29.58,10.0,Calm,Calm,-,N/A,,Scattered Clouds,0,2014-01-30 06:15:00
12:35 AM,20.5,15.1,80,29.58,10.0,Calm,Calm,-,N/A,,Scattered Clouds,0,2014-01-30 06:35:00
12:55 AM,20.8,16.2,82,29.57,10.0,SE,3.5,-,N/A,,Mostly Cloudy,140,2014-01-30 06:55:00
1:15 AM,21.7,16.3,80,29.57,10.0,Calm,Calm,-,N/A,,Overcast,0,2014-01-30 07:15:00
1:35 AM,21.4,16.9,83,29.56,10.0,Calm,Calm,-,N/A,,Overcast,0,2014-01-30 07:35:00
1:55 AM,21.7,17.2,83,29.56,10.0,Calm,Calm,-,N/A,,Overcast,0,2014-01-30 07:55:00
2:15 AM,21.4,17.6,85,29.55,10.0,North,3.5,-,N/A,,Overcast,360,2014-01-30 08:15:00
2:35 AM,22.1,16.0,77,29.56,10.0,NNW,4.6,-,N/A,,Overcast,340,2014-01-30 08:35:00
2:55 AM,22.6,17.2,80,29.55,10.0,Calm,Calm,-,N/A,,Overcast,0,2014-01-30 08:55:00
3:15 AM,22.8,17.2,79,29.55,10.0,Calm,Calm,-,N/A,,Overcast,0,2014-01-30 09:15:00
3:35 AM,22.1,18.3,85,29.54,10.0,Calm,Calm,-,N/A,Snow,Light Snow,0,2014-01-30 09:35:00
3:55 AM,23.0,18.9,84,29.54,4.0,Calm,Calm,-,N/A,Snow,Light Snow,0,2014-01-30 09:55:00
4:15 AM,22.8,20.3,90,29.54,3.0,North,4.6,-,N/A,Snow,Light Snow,10,2014-01-30 10:15:00
4:35 AM,22.8,21.0,93,29.54,4.0,North,5.8,-,N/A,Snow,Light Snow,360,2014-01-30 10:35:00
4:55 AM,22.5,21.0,94,29.53,3.0,North,4.6,-,N/A,Snow,Light Snow,360,2014-01-30 10:55:00
5:15 AM,22.1,21.2,96,29.54,3.0,Calm,Calm,-,N/A,Snow,Light Snow,0,2014-01-30 11:15:00
5:35 AM,22.3,21.2,96,29.53,2.5,NE,6.9,-,N/A,Snow,Light Snow,40,2014-01-30 11:35:00
5:55 AM,21.9,21.2,97,29.53,1.8,NNE,5.8,-,N/A,Snow,Light Snow,20,2014-01-30 11:55:00
6:15 AM,21.7,21.0,97,29.52,1.2,North,6.9,-,N/A,Snow,Light Snow,360,2014-01-30 12:15:00
6:35 AM,21.4,20.7,97,29.53,1.2,North,8.1,-,N/A,Snow,Light Snow,360,2014-01-30 12:35:00
6:55 AM,21.2,20.3,96,29.54,1.5,North,8.1,-,N/A,Snow,Light Snow,350,2014-01-30 12:55:00
7:15 AM,20.3,19.6,97,29.55,1.0,North,11.5,-,N/A,Snow,Snow,350,2014-01-30 13:15:00
7:35 AM,18.1,16.7,94,29.55,1.0,North,10.4,-,N/A,Snow,Snow,350,2014-01-30 13:35:00
7:55 AM,17.4,16.0,94,29.55,0.8,North,11.5,-,N/A,Snow,Light Snow,360,2014-01-30 13:55:00
8:15 AM,16.7,15.4,95,29.55,0.8,North,8.1,-,N/A,Snow,Light Snow,360,2014-01-30 14:15:00
8:35 AM,16.3,14.7,93,29.56,0.5,North,6.9,-,N/A,Snow,Snow,360,2014-01-30 14:35:00
8:55 AM,16.2,14.7,94,29.57,0.8,NNW,5.8,-,N/A,Snow,Light Snow,340,2014-01-30 14:55:00
9:15 AM,15.8,14.4,94,29.58,0.5,North,6.9,-,N/A,Snow,Light Snow,350,2014-01-30 15:15:00
9:35 AM,15.6,14.0,93,29.59,0.5,NNW,11.5,-,N/A,Snow,Snow,340,2014-01-30 15:35:00
9:55 AM,15.3,13.1,91,29.60,0.8,NNW,11.5,17.3,N/A,Snow,Light Snow,340,2014-01-30 15:55:00
10:15 AM,14.9,12.6,90,29.61,0.8,North,11.5,19.6,N/A,Snow,Light Snow,350,2014-01-30 16:15:00
10:35 AM,14.7,12.0,89,29.61,1.0,North,10.4,23.0,N/A,Snow,Light Snow,360,2014-01-30 16:35:00
10:55 AM,14.9,11.8,88,29.62,1.2,NNW,13.8,19.6,N/A,Snow,Light Snow,340,2014-01-30 16:55:00
11:15 AM,14.9,11.7,87,29.63,1.5,NNW,10.4,23.0,N/A,Snow,Light Snow,340,2014-01-30 17:15:00
11:35 AM,15.4,11.5,84,29.64,1.8,NNW,12.7,19.6,N/A,Snow,Light Snow,340,2014-01-30 17:35:00
11:55 AM,16.2,11.3,81,29.64,3.0,NNW,15.0,19.6,N/A,Snow,Light Snow,330,2014-01-30 17:55:00
12:15 PM,16.3,11.5,81,29.64,4.0,NNW,16.1,-,N/A,Snow,Light Snow,330,2014-01-30 18:15:00
12:35 PM,16.7,10.9,78,29.66,4.0,NNW,12.7,18.4,N/A,,Haze,330,2014-01-30 18:35:00
12:55 PM,17.2,9.3,71,29.66,10.0,NNW,13.8,18.4,N/A,,Overcast,330,2014-01-30 18:55:00
1:15 PM,18.1,7.9,64,29.66,10.0,NW,13.8,-,N/A,,Overcast,320,2014-01-30 19:15:00
1:35 PM,17.8,6.4,61,29.67,10.0,NW,15.0,19.6,N/A,,Overcast,320,2014-01-30 19:35:00
1:55 PM,18.1,5.9,59,29.68,4.0,NNW,13.8,-,N/A,,Haze,330,2014-01-30 19:55:00
2:15 PM,18.0,5.0,57,29.70,0.8,NW,13.8,21.9,N/A,,Haze,320,2014-01-30 20:15:00
2:35 PM,18.3,4.6,55,29.71,5.0,WNW,15.0,18.4,N/A,,Haze,300,2014-01-30 20:35:00
2:55 PM,17.6,4.5,56,29.73,5.0,WNW,12.7,19.6,N/A,,Haze,300,2014-01-30 20:55:00
3:15 PM,17.2,3.7,56,29.74,5.0,WNW,15.0,19.6,N/A,,Haze,300,2014-01-30 21:15:00
3:35 PM,16.7,3.2,55,29.76,7.0,NW,16.1,21.9,N/A,,Clear,310,2014-01-30 21:35:00
3:55 PM,15.4,1.4,54,29.77,10.0,NW,12.7,23.0,N/A,,Clear,320,2014-01-30 21:55:00
4:15 PM,14.9,0.9,54,29.78,10.0,NW,9.2,-,N/A,,Clear,320,2014-01-30 22:15:00
4:35 PM,13.8,0.3,55,29.79,10.0,NW,10.4,-,N/A,,Clear,320,2014-01-30 22:35:00
4:55 PM,13.1,-0.4,55,29.81,10.0,NW,8.1,-,N/A,,Clear,310,2014-01-30 22:55:00
5:15 PM,11.7,-1.1,57,29.81,10.0,NW,8.1,-,N/A,,Clear,320,2014-01-30 23:15:00
5:35 PM,10.6,-1.5,58,29.83,10.0,NW,10.4,-,N/A,,Clear,320,2014-01-30 23:35:00
5:55 PM,9.5,-2.2,59,29.84,10.0,WNW,5.8,-,N/A,,Clear,300,2014-01-30 23:55:00
6:15 PM,8.4,-2.2,62,29.86,10.0,West,9.2,-,N/A,,Clear,280,2014-01-31 00:15:00
6:35 PM,8.1,-3.1,60,29.88,10.0,West,8.1,-,N/A,,Clear,270,2014-01-31 00:35:00
6:55 PM,7.3,-3.6,61,29.88,10.0,WNW,10.4,-,N/A,,Clear,290,2014-01-31 00:55:00
7:15 PM,6.8,-4.0,61,29.89,10.0,West,13.8,17.3,N/A,,Clear,280,2014-01-31 01:15:00
7:35 PM,5.4,-5.1,62,29.91,10.0,West,10.4,17.3,N/A,,Clear,280,2014-01-31 01:35:00
7:55 PM,4.3,-5.6,64,29.92,10.0,West,11.5,-,N/A,,Clear,280,2014-01-31 01:55:00
8:15 PM,3.7,-6.2,64,29.93,10.0,WNW,11.5,-,N/A,,Clear,290,2014-01-31 02:15:00
8:35 PM,2.8,-6.9,64,29.95,10.0,WNW,15.0,20.7,N/A,,Clear,290,2014-01-31 02:35:00
8:55 PM,1.4,-8.1,64,29.96,10.0,West,11.5,-,N/A,,Clear,280,2014-01-31 02:55:00
9:15 PM,0.5,-8.7,65,29.97,10.0,West,11.5,17.3,N/A,,Clear,280,2014-01-31 03:15:00
9:35 PM,-0.4,-10.1,64,29.98,10.0,West,12.7,17.3,N/A,,Clear,280,2014-01-31 03:35:00
9:55 PM,-1.5,-11.0,64,29.99,10.0,West,10.4,-,N/A,,Clear,280,2014-01-31 03:55:00
10:15 PM,-2.2,-11.7,64,30.01,10.0,West,9.2,-,N/A,,Clear,280,2014-01-31 04:15:00
10:35 PM,-2.7,-12.3,64,30.01,10.0,West,10.4,16.1,N/A,,Clear,280,2014-01-31 04:35:00
10:55 PM,-3.6,-13.0,64,30.02,10.0,West,8.1,-,N/A,,Clear,280,2014-01-31 04:55:00
11:15 PM,-3.8,-13.5,63,30.03,10.0,West,8.1,-,N/A,,Clear,270,2014-01-31 05:15:00
11:35 PM,-5.4,-14.3,66,30.05,10.0,West,8.1,-,N/A,,Clear,270,2014-01-31 05:35:00
11:55 PM,-5.1,-14.1,65,30.05,10.0,West,8.1,-,N/A,,Clear,280,2014-01-31 05:55:00